{"data":{"norad_id":56422,"intl_designator":"2023-061BA","name":"STARLINK-6236","alt_names":[],"object_type":"PAYLOAD","status":"ACTIVE","operator":null,"country":"US","launch_date":"2023-05-04","launch_site_code":"AFETR","launch_vehicle":null,"mission":null,"orbit_class":"UNKNOWN","rcs_meters":null,"size_class":null,"mass_kg":null,"dimensions":null,"purposes":["comms"],"wikipedia_slug":null,"has_3d_model":false,"image_url":null,"decayed_at":null,"tle_current":{"epoch":"2026-05-25T03:48:16.268832Z","epoch_age_seconds":65362,"freshness":"FRESH","line1":"1 56422U 23061BA  26145.15852163  .00000076  00000+0  12290-4 0  9990","line2":"2 56422  43.0044 107.7791 0001879 279.4759  80.5880 15.27572420168656","mean_motion":15.2757242,"eccentricity":0.0001879,"inclination_deg":43.0044,"raan_deg":107.7791,"arg_perigee_deg":279.4759,"mean_anomaly_deg":80.588,"bstar":1.229e-5,"rev_number":16865,"period_min":94.267216476715,"perigee_km":481.78257224812,"apogee_km":484.36101451267,"semimajor_km":6861.2087933804,"source":"CELESTRAK","updated_at":"2026-05-25T13:38:18.063950Z"}}}